Flag for Qatar Weather past 2 weeks in Al Khor, Qatar

Now
68 °F

Passing clouds.


Feels Like: 68 °F
Forecast: 67 / 75 °F
Wind: 6 mph from Northwest

Location: Doha International Airport

Current Time: Mar 5, 2015 at 7:46:23 AM

Latest Report: Mar 5, 2015 at 7:00 AM


Visibility: N/A

Pressure: 30.01 "Hg

Humidity: 56%

Dew point: 52 °F

Location of Al KhorLocation

Historic Weather in Al Khor — Graph

°F

Al Khor temperature yesterday

Maximum temperature yesterday: 81 °F (at 12:00 PM)
Minimum temperature yesterday: 66 °F (at 5:30 AM)
Average temperature yesterday: 72 °F

Past Weeks' High & Low Weather Summary

 TemperatureHumidityPressure
High91 °F (Feb 20, 2:00 PM)94% (Feb 20, 12:00 AM)30.21 "Hg (Feb 20, 12:00 AM)
Low55 °F (Feb 24, 3:00 AM)15% (Mar 2, 12:30 PM)29.56 "Hg (Feb 20, 3:30 PM)
Average69 °F56%29.96 "Hg
* Reported Feb 18 6:00 AM — Mar 5 6:00 AM, Al Khor, Weather by CustomWeather, © 2015

Note: Actual official high and low records may vary slightly from our data, if they occured in-between our weather recording intervals... More about our weather records

Advertising

Al Khor weather history for previous 24 hours

 ConditionsComfort  
Time TempWeatherWind HumidityBarometerVisibility
6:00 AM
Thu, Mar 5
68 °FSunny.8 mph49%29.98 "Hg10 mi
5:00 AM68 °FClear.10 mph46%29.95 "Hg10 mi
4:00 AM70 °FClear.9 mph40%29.92 "Hg10 mi
3:00 AM68 °FClear.12 mph53%29.92 "Hg10 mi
2:00 AM68 °FClear.8 mph56%29.92 "Hg10 mi
1:00 AM66 °FClear.6 mph64%29.95 "Hg10 mi
12:00 AM68 °FClear.5 mph56%29.95 "Hg10 mi
11:00 PM
Wed, Mar 4
70 °FClear.9 mph57%29.95 "Hg10 mi
10:00 PM68 °FClear.7 mph64%29.95 "Hg10 mi
9:00 PM70 °FClear.8 mph57%29.98 "Hg10 mi
8:30 PM70 °FClear.12 mph53%29.95 "Hg10 mi
8:00 PM72 °FClear.10 mph47%29.95 "Hg10 mi
7:30 PM72 °FClear.12 mph47%29.95 "Hg10 mi
7:00 PM73 °FClear.12 mph41%29.95 "Hg10 mi
6:30 PM72 °FClear.9 mph57%29.95 "Hg10 mi
6:00 PM72 °FClear.12 mph57%29.92 "Hg10 mi
5:30 PM72 °FSunny.12 mph57%29.92 "Hg10 mi
5:00 PM73 °FSunny.14 mph47%29.92 "Hg10 mi
4:30 PM75 °FSunny.17 mph39%29.92 "Hg10 mi
4:00 PM77 °FSunny.18 mph34%29.92 "Hg10 mi
3:00 PM77 °FSunny.14 mph42%29.92 "Hg10 mi
2:30 PM79 °FSunny.14 mph32%29.92 "Hg10 mi
2:00 PM81 °FSunny.12 mph23%29.92 "Hg10 mi
1:00 PM81 °FSunny.12 mph23%29.92 "Hg10 mi
12:00 PM81 °FPassing clouds.10 mph21%29.95 "HgN/A
11:00 AM77 °FSunny.12 mph26%29.98 "Hg10 mi
10:00 AM79 °FPassing clouds.7 mph28%29.98 "HgN/A
9:00 AM75 °FPassing clouds.6 mph39%29.98 "HgN/A
8:00 AM72 °FSunny.2 mph53%29.98 "Hg10 mi
7:00 AM68 °FSunny.2 mph56%29.95 "Hg10 mi
Weather by CustomWeather, © 2015

See weather overviewHow to use our weather pages